WMT3J LRIA-LIMF

Flight info

Callsign WMT3J
Flight time 2h 18m
Altitude 38000
Route ARPIG P133 TOMUC DCT BUDOP DCT VEBAL DCT LABIN DCT NIMUM DCT BOA DCT TODNO DCT LURUT DCT GOLAS DCT GEN
Aircraft A320/M-SDE3FGHIRWY/LB1

Departure

Time 2026-04-27 16:04
Airport Iaşi International Airport (LRIA)

Arrival

Time 2026-04-27 18:23
Airport Turin Airport (LIMF)
Time Latitude Longitude Altitude Speed Heading
2026-04-27 15:49 47.17530 27.61981 367 ft 0 kts 274°
2026-04-27 15:57 47.17530 27.61988 368 ft 4 kts 271°
2026-04-27 15:57 47.17534 27.62026 368 ft 4 kts 234°
2026-04-27 15:58 47.17553 27.62048 368 ft 4 kts 183°
2026-04-27 15:58 47.17570 27.62044 368 ft 1 kts 154°
2026-04-27 15:58 47.17572 27.62042 368 ft 0 kts 154°
2026-04-27 16:01 47.17567 27.62046 368 ft 2 kts 154°
2026-04-27 16:01 47.17523 27.62078 368 ft 9 kts 154°
2026-04-27 16:01 47.17479 27.62116 367 ft 13 kts 148°
2026-04-27 16:01 47.17387 27.62199 366 ft 18 kts 148°
2026-04-27 16:02 47.17279 27.62301 360 ft 19 kts 133°
2026-04-27 16:02 47.17293 27.62449 354 ft 11 kts 58°
2026-04-27 16:02 47.17342 27.62565 352 ft 17 kts 58°
2026-04-27 16:02 47.17312 27.62728 341 ft 21 kts 147°
2026-04-27 16:03 47.17190 27.62873 334 ft 20 kts 118°
2026-04-27 16:03 47.17125 27.62911 329 ft 2 kts 261°
2026-04-27 16:03 47.17153 27.62868 330 ft 5 kts 330°
2026-04-27 16:03 47.17242 27.62792 335 ft 44 kts 329°
2026-04-27 16:04 47.17705 27.62380 356 ft 114 kts 329°
2026-04-27 16:04 47.18560 27.61621 512 ft 157 kts 331°
2026-04-27 16:04 47.19538 27.60786 1232 ft 164 kts 331°
2026-04-27 16:04 47.20562 27.60003 1978 ft 169 kts 333°
2026-04-27 16:05 47.21680 27.59187 2293 ft 189 kts 333°
2026-04-27 16:05 47.22931 27.58273 2542 ft 214 kts 333°
2026-04-27 16:05 47.24157 27.56904 3015 ft 230 kts 303°
2026-04-27 16:05 47.24857 27.54758 3826 ft 234 kts 294°
2026-04-27 16:06 47.25545 27.52581 4732 ft 235 kts 296°
2026-04-27 16:06 47.26272 27.50423 5687 ft 234 kts 296°
2026-04-27 16:06 47.27014 27.48303 6691 ft 231 kts 297°
2026-04-27 16:06 47.27753 27.46239 7604 ft 230 kts 297°
2026-04-27 16:07 47.28511 27.44146 8459 ft 232 kts 298°
2026-04-27 16:07 47.29276 27.42041 9332 ft 233 kts 298°
2026-04-27 16:07 47.30046 27.39924 10170 ft 235 kts 299°
2026-04-27 16:07 47.30821 27.37793 10932 ft 236 kts 298°
2026-04-27 16:08 47.31599 27.35651 11684 ft 237 kts 298°
2026-04-27 16:08 47.32382 27.33502 12455 ft 239 kts 298°
2026-04-27 16:08 47.33167 27.31347 13220 ft 240 kts 298°
2026-04-27 16:08 47.33964 27.29165 13871 ft 247 kts 299°
2026-04-27 16:09 47.34803 27.26866 14039 ft 269 kts 298°
2026-04-27 16:09 47.36711 27.21608 14401 ft 306 kts 298°
2026-04-27 16:09 47.37725 27.18810 14914 ft 311 kts 298°
2026-04-27 16:10 47.39794 27.13110 16087 ft 317 kts 298°
2026-04-27 16:10 47.41884 27.07319 17293 ft 322 kts 298°
2026-04-27 16:11 47.42943 27.04381 17887 ft 325 kts 298°
2026-04-27 16:11 47.45086 26.98427 18998 ft 330 kts 298°
2026-04-27 16:12 47.47256 26.92385 20049 ft 336 kts 298°
2026-04-27 16:12 47.48356 26.89315 20572 ft 338 kts 298°
2026-04-27 16:12 47.50077 26.82811 21532 ft 345 kts 281°
2026-04-27 16:13 47.50218 26.79240 22011 ft 351 kts 270°
2026-04-27 16:13 47.49380 26.72020 22947 ft 359 kts 263°
2026-04-27 16:13 47.48911 26.68416 23409 ft 362 kts 263°
2026-04-27 16:14 47.47956 26.61048 24250 ft 366 kts 263°
2026-04-27 16:14 47.46986 26.53615 25048 ft 369 kts 263°
2026-04-27 16:15 47.45998 26.46122 25815 ft 373 kts 263°
2026-04-27 16:15 47.44989 26.38551 26600 ft 376 kts 263°
2026-04-27 16:16 47.43977 26.30916 27337 ft 380 kts 263°
2026-04-27 16:16 47.42954 26.23214 28058 ft 384 kts 263°
2026-04-27 16:17 47.41908 26.15437 28804 ft 388 kts 263°
2026-04-27 16:17 47.40850 26.07625 29518 ft 392 kts 263°
2026-04-27 16:18 47.39767 25.99677 30231 ft 396 kts 263°
2026-04-27 16:18 47.38677 25.91712 31002 ft 395 kts 263°
2026-04-27 16:19 47.38129 25.87736 31393 ft 395 kts 263°
2026-04-27 16:19 47.37583 25.83765 31784 ft 394 kts 263°
2026-04-27 16:20 47.35945 25.71878 32992 ft 394 kts 263°
2026-04-27 16:20 47.35395 25.67913 33397 ft 394 kts 263°
2026-04-27 16:20 47.34289 25.60000 34216 ft 393 kts 263°
2026-04-27 16:21 47.33732 25.56043 34533 ft 393 kts 263°
2026-04-27 16:21 47.32066 25.44240 35446 ft 393 kts 263°
2026-04-27 16:22 47.31507 25.40284 35739 ft 393 kts 263°
2026-04-27 16:22 47.30386 25.32391 36284 ft 393 kts 263°
2026-04-27 16:22 47.29820 25.28433 36546 ft 394 kts 263°
2026-04-27 16:23 47.29253 25.24482 36815 ft 394 kts 263°
2026-04-27 16:23 47.28119 25.16589 37321 ft 394 kts 263°
2026-04-27 16:23 47.27551 25.12646 37576 ft 394 kts 263°
2026-04-27 16:24 47.26977 25.08691 37813 ft 394 kts 263°
2026-04-27 16:24 47.25822 25.00785 38150 ft 396 kts 262°
2026-04-27 16:25 47.24657 24.92819 38173 ft 399 kts 262°
2026-04-27 16:26 47.22320 24.76892 38181 ft 399 kts 262°
2026-04-27 16:27 47.19938 24.60902 38175 ft 399 kts 262°
2026-04-27 16:28 47.16940 24.40960 38175 ft 401 kts 262°
2026-04-27 16:29 47.13899 24.20942 38171 ft 402 kts 262°
2026-04-27 16:30 47.11419 24.04917 38177 ft 402 kts 261°
2026-04-27 16:31 47.08314 23.84932 38180 ft 402 kts 261°
2026-04-27 16:32 47.06425 23.72910 38181 ft 403 kts 261°
2026-04-27 16:33 47.04737 23.62259 38185 ft 403 kts 261°
2026-04-27 16:33 47.03457 23.54250 38180 ft 403 kts 261°
2026-04-27 16:34 47.02180 23.46259 38187 ft 403 kts 261°
2026-04-27 16:34 47.00893 23.38254 38185 ft 403 kts 261°
2026-04-27 16:35 46.99599 23.30265 38195 ft 403 kts 260°
2026-04-27 16:36 46.97649 23.18280 38195 ft 403 kts 260°
2026-04-27 16:36 46.96344 23.10300 38194 ft 403 kts 260°
2026-04-27 16:37 46.95041 23.02370 38196 ft 402 kts 260°
2026-04-27 16:37 46.93727 22.94393 38198 ft 402 kts 260°
2026-04-27 16:38 46.92410 22.86432 38197 ft 402 kts 260°
2026-04-27 16:38 46.91086 22.78470 38190 ft 402 kts 259°
2026-04-27 16:39 46.89750 22.70531 38200 ft 402 kts 259°
2026-04-27 16:39 46.88414 22.62591 38209 ft 402 kts 259°
2026-04-27 16:40 46.87073 22.54645 38200 ft 402 kts 259°
2026-04-27 16:40 46.85724 22.46709 38197 ft 402 kts 259°
2026-04-27 16:41 46.84371 22.38782 38187 ft 402 kts 259°
2026-04-27 16:41 46.83018 22.30909 38201 ft 402 kts 259°
2026-04-27 16:42 46.81660 22.22980 38198 ft 402 kts 259°
2026-04-27 16:42 46.80294 22.15042 38193 ft 402 kts 259°
2026-04-27 16:43 46.78911 22.07133 38188 ft 402 kts 259°
2026-04-27 16:43 46.77531 21.99219 38186 ft 403 kts 259°
2026-04-27 16:44 46.76144 21.91289 38182 ft 403 kts 259°
2026-04-27 16:44 46.74745 21.83360 38178 ft 404 kts 258°
2026-04-27 16:45 46.73342 21.75418 38177 ft 404 kts 259°
2026-04-27 16:45 46.71941 21.67515 38176 ft 405 kts 258°
2026-04-27 16:46 46.70519 21.59552 38173 ft 406 kts 258°
2026-04-27 16:46 46.69089 21.51600 38173 ft 406 kts 258°
2026-04-27 16:47 46.67745 21.43603 38170 ft 406 kts 261°
2026-04-27 16:47 46.66610 21.35528 38170 ft 406 kts 261°
2026-04-27 16:48 46.65493 21.27447 38164 ft 407 kts 261°
2026-04-27 16:48 46.64322 21.19360 38175 ft 408 kts 260°
2026-04-27 16:49 46.62500 21.07255 38184 ft 409 kts 260°
2026-04-27 16:49 46.61280 20.99168 38182 ft 409 kts 260°
2026-04-27 16:50 46.60063 20.91089 38184 ft 409 kts 260°
2026-04-27 16:50 46.58846 20.83047 38181 ft 409 kts 260°
2026-04-27 16:51 46.57618 20.74961 38184 ft 410 kts 259°
2026-04-27 16:51 46.56376 20.66868 38180 ft 410 kts 259°
2026-04-27 16:52 46.55132 20.58787 38188 ft 410 kts 259°
2026-04-27 16:52 46.53881 20.50686 38182 ft 410 kts 259°
2026-04-27 16:53 46.52625 20.42589 38182 ft 410 kts 259°
2026-04-27 16:53 46.51365 20.34496 38185 ft 411 kts 259°
2026-04-27 16:54 46.50101 20.26446 38185 ft 411 kts 259°
2026-04-27 16:54 46.48824 20.18343 38182 ft 411 kts 259°
2026-04-27 16:55 46.47535 20.10252 38189 ft 411 kts 259°
2026-04-27 16:55 46.46246 20.02160 38186 ft 411 kts 259°
2026-04-27 16:56 46.44956 19.94062 38187 ft 411 kts 259°
2026-04-27 16:56 46.43663 19.85980 38191 ft 411 kts 259°
2026-04-27 16:57 46.42365 19.77946 38190 ft 412 kts 258°
2026-04-27 16:57 46.41050 19.69859 38186 ft 412 kts 259°
2026-04-27 16:58 46.39729 19.61771 38191 ft 412 kts 258°
2026-04-27 16:58 46.38407 19.53702 38187 ft 412 kts 258°
2026-04-27 16:59 46.37075 19.45630 38187 ft 412 kts 258°
2026-04-27 16:59 46.35735 19.37555 38187 ft 412 kts 258°
2026-04-27 17:00 46.33718 19.25439 38182 ft 412 kts 258°
2026-04-27 17:01 46.32372 19.17365 38181 ft 413 kts 258°
2026-04-27 17:01 46.31014 19.09294 38171 ft 413 kts 258°
2026-04-27 17:02 46.29644 19.01231 38173 ft 413 kts 258°
2026-04-27 17:02 46.28271 18.93151 38187 ft 413 kts 258°
2026-04-27 17:03 46.26899 18.85075 38187 ft 414 kts 258°
2026-04-27 17:03 46.25519 18.77002 38188 ft 414 kts 258°
2026-04-27 17:04 46.24128 18.68932 38182 ft 414 kts 258°
2026-04-27 17:04 46.22732 18.60857 38183 ft 414 kts 258°
2026-04-27 17:05 46.21329 18.52787 38180 ft 415 kts 258°
2026-04-27 17:05 46.20154 18.46063 38178 ft 415 kts 258°
2026-04-27 17:06 46.18738 18.37984 38180 ft 415 kts 258°
2026-04-27 17:06 46.17315 18.29899 38180 ft 415 kts 258°
2026-04-27 17:07 46.15889 18.21819 38181 ft 415 kts 258°
2026-04-27 17:07 46.14456 18.13732 38174 ft 416 kts 258°
2026-04-27 17:08 46.13013 18.05655 38179 ft 416 kts 258°
2026-04-27 17:08 46.11559 17.97563 38177 ft 416 kts 257°
2026-04-27 17:09 46.10102 17.89487 38181 ft 416 kts 257°
2026-04-27 17:09 46.08645 17.81412 38177 ft 416 kts 257°
2026-04-27 17:10 46.07178 17.73336 38174 ft 416 kts 257°
2026-04-27 17:10 46.05717 17.65316 38161 ft 416 kts 257°
2026-04-27 17:11 46.04242 17.57240 38177 ft 417 kts 257°
2026-04-27 17:11 46.02013 17.45142 38170 ft 417 kts 257°
2026-04-27 17:12 45.99766 17.33032 38165 ft 417 kts 257°
2026-04-27 17:13 45.98192 17.24996 38172 ft 418 kts 255°
2026-04-27 17:13 45.96442 17.17013 38158 ft 418 kts 255°
2026-04-27 17:14 45.94658 17.09062 38161 ft 418 kts 255°
2026-04-27 17:14 45.92892 17.01095 38163 ft 418 kts 255°
2026-04-27 17:15 45.91139 16.93110 38155 ft 419 kts 255°
2026-04-27 17:15 45.89386 16.85136 38157 ft 419 kts 255°
2026-04-27 17:16 45.87623 16.77212 38159 ft 419 kts 255°
2026-04-27 17:16 45.85847 16.69248 38147 ft 419 kts 255°
2026-04-27 17:17 45.84063 16.61233 38166 ft 419 kts 255°
2026-04-27 17:17 45.82282 16.53269 38159 ft 419 kts 255°
2026-04-27 17:18 45.79603 16.41387 38155 ft 419 kts 254°
2026-04-27 17:18 45.77799 16.33429 38145 ft 419 kts 254°
2026-04-27 17:19 45.75997 16.25481 38157 ft 419 kts 254°
2026-04-27 17:19 45.74185 16.17534 38146 ft 419 kts 254°
2026-04-27 17:20 45.72364 16.09584 38156 ft 420 kts 254°
2026-04-27 17:20 45.70534 16.01632 38152 ft 420 kts 254°
2026-04-27 17:21 45.68709 15.93727 38154 ft 420 kts 253°
2026-04-27 17:21 45.66865 15.85784 38149 ft 421 kts 253°
2026-04-27 17:22 45.65030 15.77905 38123 ft 423 kts 255°
2026-04-27 17:22 45.63171 15.69909 38109 ft 424 kts 255°
2026-04-27 17:23 45.61298 15.61880 38108 ft 426 kts 255°
2026-04-27 17:23 45.59412 15.53844 38111 ft 428 kts 255°
2026-04-27 17:24 45.57506 15.45786 38122 ft 428 kts 255°
2026-04-27 17:24 45.55593 15.37725 38129 ft 429 kts 255°
2026-04-27 17:25 45.53680 15.29666 38138 ft 429 kts 255°
2026-04-27 17:25 45.51757 15.21599 38134 ft 429 kts 254°
2026-04-27 17:26 45.49831 15.13532 38136 ft 429 kts 254°
2026-04-27 17:26 45.47896 15.05475 38130 ft 429 kts 254°
2026-04-27 17:27 45.45963 14.97424 38131 ft 430 kts 254°
2026-04-27 17:27 45.44023 14.89404 38128 ft 430 kts 254°
2026-04-27 17:28 45.42068 14.81358 38117 ft 430 kts 254°
2026-04-27 17:29 45.39122 14.69261 38107 ft 430 kts 254°
2026-04-27 17:29 45.37155 14.61227 38094 ft 430 kts 253°
2026-04-27 17:30 45.35176 14.53190 38094 ft 430 kts 253°
2026-04-27 17:30 45.32207 14.41182 38088 ft 430 kts 253°
2026-04-27 17:31 45.30215 14.33150 38092 ft 430 kts 253°
2026-04-27 17:31 45.28218 14.25120 38100 ft 431 kts 253°
2026-04-27 17:32 45.25217 14.13095 38091 ft 431 kts 253°
2026-04-27 17:33 45.23203 14.05074 38091 ft 431 kts 253°
2026-04-27 17:33 45.21188 13.97059 38102 ft 431 kts 253°
2026-04-27 17:34 45.19168 13.89055 38100 ft 431 kts 253°
2026-04-27 17:34 45.17140 13.81037 38093 ft 431 kts 253°
2026-04-27 17:35 45.15105 13.73042 38093 ft 431 kts 253°
2026-04-27 17:35 45.13057 13.65052 38087 ft 431 kts 253°
2026-04-27 17:36 45.11009 13.57062 38090 ft 431 kts 253°
2026-04-27 17:36 45.08953 13.49071 38085 ft 432 kts 252°
2026-04-27 17:37 45.06885 13.41082 38085 ft 432 kts 252°
2026-04-27 17:37 45.04834 13.33141 38083 ft 432 kts 252°
2026-04-27 17:38 45.03099 13.26456 38080 ft 432 kts 252°
2026-04-27 17:38 45.01021 13.18480 38080 ft 432 kts 252°
2026-04-27 17:39 44.98938 13.10508 38081 ft 432 kts 253°
2026-04-27 17:39 44.97450 13.02327 38082 ft 430 kts 259°
2026-04-27 17:40 44.96083 12.94093 38084 ft 430 kts 259°
2026-04-27 17:40 44.94696 12.85865 38084 ft 430 kts 259°
2026-04-27 17:41 44.93309 12.77635 38086 ft 430 kts 259°
2026-04-27 17:41 44.91914 12.69419 38084 ft 430 kts 259°
2026-04-27 17:42 44.90509 12.61193 38086 ft 430 kts 259°
2026-04-27 17:42 44.89111 12.52982 38084 ft 431 kts 259°
2026-04-27 17:43 44.87712 12.44818 38087 ft 431 kts 259°
2026-04-27 17:43 44.86286 12.36562 38081 ft 431 kts 259°
2026-04-27 17:44 44.84879 12.28395 38087 ft 431 kts 258°
2026-04-27 17:44 44.83447 12.20183 38079 ft 431 kts 258°
2026-04-27 17:45 44.82006 12.11976 38077 ft 431 kts 258°
2026-04-27 17:45 44.80565 12.03778 38075 ft 431 kts 258°
2026-04-27 17:46 44.79117 11.95584 38076 ft 431 kts 258°
2026-04-27 17:46 44.77390 11.87486 38073 ft 434 kts 248°
2026-04-27 17:47 44.74473 11.80004 38068 ft 436 kts 243°
2026-04-27 17:47 44.71472 11.72589 38068 ft 436 kts 243°
2026-04-27 17:48 44.68455 11.65165 38066 ft 437 kts 243°
2026-04-27 17:48 44.65591 11.58120 38058 ft 437 kts 243°
2026-04-27 17:49 44.62577 11.50709 38051 ft 437 kts 243°
2026-04-27 17:49 44.59549 11.43297 38044 ft 437 kts 242°
2026-04-27 17:50 44.56517 11.35916 38043 ft 437 kts 242°
2026-04-27 17:50 44.54048 11.28198 38040 ft 432 kts 258°
2026-04-27 17:50 44.53503 11.24073 38039 ft 429 kts 267°
2026-04-27 17:51 44.53169 11.15733 38041 ft 428 kts 269°
2026-04-27 17:51 44.52798 11.07388 38041 ft 429 kts 268°
2026-04-27 17:52 44.52407 10.99034 38051 ft 429 kts 268°
2026-04-27 17:52 44.52025 10.90675 38058 ft 429 kts 268°
2026-04-27 17:53 44.51648 10.82364 38065 ft 429 kts 268°
2026-04-27 17:53 44.51258 10.74019 38073 ft 429 kts 268°
2026-04-27 17:54 44.50865 10.65666 38076 ft 429 kts 268°
2026-04-27 17:54 44.50470 10.57314 38082 ft 429 kts 268°
2026-04-27 17:55 44.50075 10.48973 38081 ft 429 kts 268°
2026-04-27 17:55 44.49668 10.40638 38076 ft 429 kts 268°
2026-04-27 17:56 44.49249 10.32289 38032 ft 429 kts 268°
2026-04-27 17:56 44.49041 10.28117 37752 ft 428 kts 268°
2026-04-27 17:56 44.48833 10.23947 37477 ft 428 kts 268°
2026-04-27 17:57 44.48621 10.19783 37199 ft 429 kts 268°
2026-04-27 17:57 44.48405 10.15625 36941 ft 429 kts 268°
2026-04-27 17:57 44.48187 10.11443 36679 ft 430 kts 268°
2026-04-27 17:57 44.47968 10.07258 36136 ft 432 kts 268°
2026-04-27 17:58 44.47750 10.03054 35512 ft 433 kts 268°
2026-04-27 17:58 44.47533 9.98883 35110 ft 429 kts 268°
2026-04-27 17:58 44.47311 9.94727 34639 ft 427 kts 268°
2026-04-27 17:58 44.47087 9.90588 34175 ft 425 kts 268°
2026-04-27 17:59 44.46861 9.86476 33660 ft 423 kts 268°
2026-04-27 17:59 44.46641 9.82424 33199 ft 419 kts 268°
2026-04-27 17:59 44.46418 9.78322 32719 ft 415 kts 268°
2026-04-27 17:59 44.46200 9.74354 32254 ft 412 kts 268°
2026-04-27 18:00 44.46050 9.71654 31936 ft 411 kts 268°
2026-04-27 18:00 44.45756 9.66390 31324 ft 407 kts 268°
2026-04-27 18:00 44.45533 9.62454 30870 ft 404 kts 268°
2026-04-27 18:00 44.45312 9.58536 30402 ft 402 kts 268°
2026-04-27 18:01 44.45095 9.54638 29909 ft 400 kts 268°
2026-04-27 18:01 44.44880 9.50776 29457 ft 396 kts 268°
2026-04-27 18:01 44.44666 9.46944 29013 ft 392 kts 268°
2026-04-27 18:01 44.44455 9.43155 28598 ft 388 kts 268°
2026-04-27 18:02 44.44248 9.39404 28177 ft 384 kts 268°
2026-04-27 18:02 44.44041 9.35692 27768 ft 381 kts 268°
2026-04-27 18:02 44.43832 9.32016 27366 ft 378 kts 267°
2026-04-27 18:02 44.43621 9.28350 26972 ft 376 kts 267°
2026-04-27 18:03 44.43410 9.24723 26573 ft 373 kts 267°
2026-04-27 18:03 44.43198 9.21109 26191 ft 371 kts 267°
2026-04-27 18:03 44.42989 9.17527 25794 ft 368 kts 267°
2026-04-27 18:03 44.42781 9.13964 25386 ft 366 kts 267°
2026-04-27 18:04 44.42801 9.10419 24986 ft 362 kts 278°
2026-04-27 18:04 44.43317 9.07003 24571 ft 359 kts 289°
2026-04-27 18:04 44.44303 9.03811 24166 ft 356 kts 300°
2026-04-27 18:04 44.45558 9.00823 23760 ft 355 kts 301°
2026-04-27 18:05 44.46811 8.97842 23269 ft 353 kts 301°
2026-04-27 18:05 44.48034 8.94920 22854 ft 350 kts 300°
2026-04-27 18:05 44.49241 8.92023 22428 ft 347 kts 300°
2026-04-27 18:05 44.50466 8.89073 22009 ft 345 kts 300°
2026-04-27 18:06 44.51665 8.86177 21591 ft 343 kts 300°
2026-04-27 18:06 44.52858 8.83292 21168 ft 340 kts 300°
2026-04-27 18:06 44.54049 8.80422 20750 ft 339 kts 300°
2026-04-27 18:06 44.55231 8.77580 20327 ft 337 kts 300°
2026-04-27 18:07 44.56413 8.74736 19910 ft 335 kts 300°
2026-04-27 18:07 44.57579 8.71924 19496 ft 334 kts 300°
2026-04-27 18:07 44.58745 8.69105 19077 ft 333 kts 300°
2026-04-27 18:07 44.59907 8.66292 18653 ft 332 kts 300°
2026-04-27 18:08 44.61063 8.63491 18222 ft 331 kts 300°
2026-04-27 18:08 44.62212 8.60700 17782 ft 329 kts 300°
2026-04-27 18:08 44.62970 8.58861 17507 ft 328 kts 300°
2026-04-27 18:08 44.64482 8.55195 16958 ft 325 kts 300°
2026-04-27 18:09 44.65612 8.52456 16552 ft 323 kts 300°
2026-04-27 18:09 44.66737 8.49723 16127 ft 322 kts 300°
2026-04-27 18:09 44.67491 8.47886 15866 ft 321 kts 300°
2026-04-27 18:09 44.68964 8.44289 15329 ft 319 kts 300°
2026-04-27 18:10 44.70068 8.41582 14931 ft 319 kts 300°
2026-04-27 18:10 44.70800 8.39788 14668 ft 318 kts 300°
2026-04-27 18:10 44.71901 8.37092 14269 ft 318 kts 300°
2026-04-27 18:10 44.73005 8.34396 13869 ft 317 kts 300°
2026-04-27 18:11 44.74109 8.31698 13443 ft 316 kts 300°
2026-04-27 18:11 44.75200 8.29020 13042 ft 314 kts 300°
2026-04-27 18:11 44.76286 8.26356 12645 ft 313 kts 300°
2026-04-27 18:11 44.77366 8.23705 12253 ft 311 kts 300°
2026-04-27 18:12 44.78439 8.21064 11857 ft 310 kts 300°
2026-04-27 18:12 44.79507 8.18435 11476 ft 309 kts 300°
2026-04-27 18:12 44.80563 8.15836 11300 ft 301 kts 300°
2026-04-27 18:12 44.81593 8.13301 11054 ft 296 kts 300°
2026-04-27 18:13 44.82609 8.10792 10716 ft 295 kts 300°
2026-04-27 18:13 44.83626 8.08282 10379 ft 293 kts 300°
2026-04-27 18:13 44.84637 8.05785 10054 ft 293 kts 300°
2026-04-27 18:13 44.85640 8.03300 9697 ft 292 kts 300°
2026-04-27 18:14 44.86642 8.00818 9344 ft 290 kts 300°
2026-04-27 18:14 44.87639 7.98345 8989 ft 289 kts 300°
2026-04-27 18:14 44.88631 7.95881 8644 ft 288 kts 300°
2026-04-27 18:14 44.89617 7.93429 8308 ft 286 kts 300°
2026-04-27 18:15 44.90589 7.91013 7977 ft 285 kts 300°
2026-04-27 18:15 44.91527 7.88682 7655 ft 284 kts 300°
2026-04-27 18:15 44.92177 7.87033 7425 ft 283 kts 296°
2026-04-27 18:15 44.92628 7.85439 7226 ft 282 kts 287°
2026-04-27 18:16 44.93068 7.82771 6874 ft 279 kts 282°
2026-04-27 18:16 44.93466 7.80214 6461 ft 274 kts 282°
2026-04-27 18:16 44.93872 7.77647 6069 ft 267 kts 282°
2026-04-27 18:16 44.94272 7.75116 5708 ft 258 kts 282°
2026-04-27 18:17 44.94646 7.72742 5564 ft 241 kts 282°
2026-04-27 18:17 44.95002 7.70486 5457 ft 231 kts 282°
2026-04-27 18:17 44.95344 7.68316 5343 ft 224 kts 282°
2026-04-27 18:17 44.95726 7.66195 5249 ft 223 kts 293°
2026-04-27 18:18 44.96700 7.64516 5107 ft 223 kts 324°
2026-04-27 18:18 44.98107 7.63672 4895 ft 220 kts 351°
2026-04-27 18:18 44.99630 7.63653 4633 ft 219 kts
2026-04-27 18:18 45.01151 7.63760 4348 ft 219 kts
2026-04-27 18:19 45.02672 7.63861 4060 ft 218 kts
2026-04-27 18:19 45.04189 7.63958 3774 ft 218 kts
2026-04-27 18:19 45.05709 7.64054 3487 ft 218 kts
2026-04-27 18:19 45.07232 7.64150 3202 ft 218 kts
2026-04-27 18:20 45.08743 7.64245 2916 ft 215 kts
2026-04-27 18:20 45.10185 7.64337 2657 ft 199 kts
2026-04-27 18:20 45.11459 7.64417 2410 ft 181 kts
2026-04-27 18:20 45.12633 7.64491 2185 ft 159 kts
2026-04-27 18:21 45.13696 7.64560 2062 ft 152 kts
2026-04-27 18:21 45.14739 7.64630 1870 ft 148 kts
2026-04-27 18:21 45.15765 7.64703 1691 ft 146 kts
2026-04-27 18:21 45.16767 7.64731 1488 ft 145 kts
2026-04-27 18:22 45.17767 7.64806 1287 ft 145 kts
2026-04-27 18:22 45.18740 7.64874 1078 ft 144 kts
2026-04-27 18:22 45.19708 7.64937 983 ft 127 kts
2026-04-27 18:22 45.20434 7.64987 983 ft 80 kts
2026-04-27 18:23 45.20757 7.65006 982 ft 25 kts
2026-04-27 18:23 45.20851 7.64957 987 ft 15 kts 316°
2026-04-27 18:23 45.20876 7.64860 988 ft 5 kts 265°
2026-04-27 18:23 45.20873 7.64820 993 ft 4 kts 262°
2026-04-27 18:24 45.20859 7.64794 987 ft 5 kts 230°
2026-04-27 18:24 45.20807 7.64743 987 ft 14 kts 188°
2026-04-27 18:24 45.20694 7.64735 989 ft 20 kts 183°
2026-04-27 18:24 45.20555 7.64727 989 ft 20 kts 182°
2026-04-27 18:25 45.20413 7.64718 987 ft 21 kts 182°
2026-04-27 18:25 45.20268 7.64709 986 ft 20 kts 182°
2026-04-27 18:25 45.20123 7.64698 987 ft 19 kts 183°
2026-04-27 18:25 45.19987 7.64691 988 ft 20 kts 183°
2026-04-27 18:26 45.19865 7.64682 985 ft 16 kts 182°
2026-04-27 18:26 45.19746 7.64696 991 ft 18 kts 169°
2026-04-27 18:26 45.19629 7.64691 986 ft 16 kts 182°
2026-04-27 18:26 45.19508 7.64682 988 ft 19 kts 183°
2026-04-27 18:27 45.19375 7.64675 989 ft 18 kts 182°
2026-04-27 18:27 45.19248 7.64667 986 ft 19 kts 182°
2026-04-27 18:27 45.19111 7.64657 986 ft 13 kts 183°
2026-04-27 18:27 45.19078 7.64592 988 ft 6 kts 259°
2026-04-27 18:28 45.19067 7.64525 989 ft 4 kts 257°
2026-04-27 18:28 45.19063 7.64501 986 ft 0 kts 257°